Date String (YYYY-MM-DD hh:mm:ss) UTC,Instrument flags,Ambient pressure (hPa),Sample flow (lpm),Bypass flow (lpm),Sample temperature (°C),Ambient temperature (°C),ASC tube jacket temperature (°C),LED temperature (°C),Box temperature (°C),Sample RH (%),Span deviation,Mass concentration (μg/m³),Mass concentration (μg/m³),Mass concentration (μg/m³)
DateTimeUTC,F1_M11,P_M11,Q1_M11,Q2_M11,T1_M11,T2_M11,T3_M11,T4_M11,T5_M11,U1_M11,ZSPAN_M11,X0_M11,X2_M11,X1_M11
2021-11-11 15:00:00,,0828.3,4.99,0.00,22.8,22.0,00.0,31.8,24.6,12.8,0000.0,0011.25,0003.95,0002.98
2021-11-11 15:01:00,,0828.3,4.99,0.00,22.8,22.0,00.0,31.8,24.6,12.9,0000.0,0010.41,0003.88,0002.96
2021-11-11 15:02:00,,0828.2,5.01,0.00,22.8,22.0,00.0,31.8,24.6,12.8,0000.0,0009.65,0003.85,0002.97
2021-11-11 15:03:00,,0828.3,5.01,0.00,22.8,22.0,00.0,31.8,24.6,12.7,0000.0,0009.62,0003.80,0002.96
2021-11-11 15:04:00,,0828.3,5.00,0.00,22.9,22.0,00.0,31.8,24.7,12.6,0000.0,0009.42,0003.77,0002.96
2021-11-11 15:05:00,,0828.2,5.00,0.00,22.8,22.1,00.0,31.8,24.7,12.6,0000.0,0008.94,0003.71,0002.98
2021-11-11 15:06:00,,0828.3,4.99,0.00,22.9,22.1,00.0,31.9,24.7,12.7,0000.0,0008.66,0003.65,0002.98
2021-11-11 15:07:00,,0828.2,5.01,0.00,22.9,22.1,00.0,31.9,24.7,12.6,0000.0,0008.91,0003.65,0002.98
2021-11-11 15:08:00,,0828.2,4.99,0.00,22.9,22.1,00.0,31.9,24.7,12.6,0000.0,0009.31,0003.68,0002.99
2021-11-11 15:09:00,,0828.3,5.01,0.00,22.9,22.1,00.0,31.9,24.7,12.6,0000.0,0009.25,0003.66,0003.00
2021-11-11 15:10:00,,0828.3,5.00,0.00,22.9,22.2,00.0,31.9,24.7,12.7,0000.0,0008.72,0003.63,0002.98
2021-11-11 15:11:00,,0828.3,5.01,0.00,22.9,22.2,00.0,31.9,24.8,12.6,0000.0,0008.76,0003.63,0002.98
2021-11-11 15:12:00,,0828.1,5.01,0.00,22.9,22.2,00.0,31.9,24.8,12.5,0000.0,0009.20,0003.67,0002.99
2021-11-11 15:13:00,,0828.2,4.99,0.00,22.9,22.2,00.0,31.9,24.8,12.5,0000.0,0010.23,0003.70,0003.00
2021-11-11 15:14:00,,0828.2,5.01,0.00,23.0,22.2,00.0,31.9,24.8,12.5,0000.0,0009.97,0003.67,0002.99
2021-11-11 15:15:00,,0828.2,5.00,0.00,23.0,22.2,00.0,31.9,24.8,12.6,0000.0,0009.86,0003.66,0002.99
2021-11-11 15:16:00,,0828.2,4.99,0.00,23.0,22.2,00.0,31.9,24.8,12.6,0000.0,0009.89,0003.63,0002.98
2021-11-11 15:17:00,,0828.3,5.01,0.00,23.0,22.2,00.0,31.9,24.8,12.6,0000.0,0009.93,0003.65,0002.99
2021-11-11 15:18:00,,0828.4,5.01,0.00,23.0,22.3,00.0,32.0,24.8,12.6,0000.0,0009.74,0003.64,0003.00
2021-11-11 15:19:00,,0828.5,4.99,0.00,23.0,22.3,00.0,32.0,24.8,12.6,0000.0,0009.52,0003.62,0003.01
2021-11-11 15:20:00,,0828.5,4.99,0.00,23.0,22.3,00.0,32.0,24.8,12.6,0000.0,0009.44,0003.62,0003.03
2021-11-11 15:21:00,,0828.5,5.01,0.00,23.0,22.3,00.0,32.0,24.9,12.7,0000.0,0009.42,0003.65,0003.05
2021-11-11 15:22:00,,0828.4,4.99,0.00,23.0,22.3,00.0,32.0,24.9,12.6,0000.0,0009.29,0003.64,0003.09
2021-11-11 15:23:00,,0828.4,5.01,0.00,23.1,22.3,00.0,32.0,24.9,12.5,0000.0,0009.05,0003.65,0003.11
2021-11-11 15:24:00,,0828.5,4.99,0.00,23.1,22.3,00.0,32.0,24.9,12.4,0000.0,0008.04,0003.65,0003.12
2021-11-11 15:25:00,,0828.3,5.00,0.00,23.1,22.3,00.0,32.0,24.9,12.4,0000.0,0008.05,0003.65,0003.13
2021-11-11 15:26:00,,0828.3,4.99,0.00,23.1,22.4,00.0,32.0,24.9,12.4,0000.0,0008.72,0003.68,0003.15
2021-11-11 15:27:00,,0828.4,5.01,0.00,23.1,22.4,00.0,32.0,24.9,12.3,0000.0,0008.69,0003.70,0003.16
2021-11-11 15:28:00,,0828.3,5.01,0.00,23.1,22.4,00.0,32.0,25.0,12.4,0000.0,0008.56,0003.70,0003.17
2021-11-11 15:29:00,,0828.3,5.00,0.00,23.1,22.4,00.0,32.1,25.0,12.4,0000.0,0008.71,0003.73,0003.18
2021-11-11 15:30:00,,0828.3,5.00,0.00,23.1,22.4,00.0,32.1,25.0,12.2,0000.0,0008.86,0003.72,0003.20
2021-11-11 15:31:00,,0828.2,5.01,0.00,23.1,22.4,00.0,32.1,25.0,12.3,0000.0,0008.78,0003.74,0003.21
2021-11-11 15:32:00,,0828.3,4.99,0.00,23.2,22.4,00.0,32.1,25.0,12.4,0000.0,0009.20,0003.75,0003.22
2021-11-11 15:33:00,,0828.3,4.99,0.00,23.2,22.4,00.0,32.1,25.0,12.5,0000.0,0010.03,0003.79,0003.24
2021-11-11 15:34:00,,0828.2,5.01,0.00,23.2,22.4,00.0,32.1,25.0,12.4,0000.0,0009.94,0003.80,0003.26
2021-11-11 15:35:00,,0828.3,5.00,0.00,23.2,22.4,00.0,32.1,25.0,12.3,0000.0,0009.68,0003.82,0003.28
2021-11-11 15:36:00,,0828.2,5.02,0.00,23.2,22.4,00.0,32.1,25.0,12.3,0000.0,0009.86,0003.86,0003.29
2021-11-11 15:37:00,,0828.2,4.99,0.00,23.2,22.4,00.0,32.1,25.1,12.3,0000.0,0009.46,0003.91,0003.30
2021-11-11 15:38:00,,0828.0,5.00,0.00,23.2,22.5,00.0,32.2,25.1,12.2,0000.0,0009.56,0003.96,0003.32
2021-11-11 15:39:00,,0828.0,4.99,0.00,23.3,22.5,00.0,32.2,25.1,12.0,0000.0,0009.59,0003.97,0003.34
2021-11-11 15:40:00,,0828.0,5.01,0.00,23.3,22.5,00.0,32.2,25.1,12.0,0000.0,0009.42,0003.96,0003.35
2021-11-11 15:41:00,,0828.2,4.99,0.00,23.3,22.5,00.0,32.2,25.1,11.8,0000.0,0009.71,0004.01,0003.38
2021-11-11 15:42:00,,0828.2,5.01,0.00,23.3,22.5,00.0,32.2,25.1,11.9,0000.0,0010.01,0004.04,0003.39
2021-11-11 15:43:00,,0828.2,4.99,0.00,23.3,22.5,00.0,32.2,25.1,12.1,0000.0,0009.90,0004.07,0003.41
2021-11-11 15:44:00,,0828.2,5.01,0.00,23.3,22.5,00.0,32.2,25.1,12.0,0000.0,0009.19,0004.08,0003.42
2021-11-11 15:45:00,,0828.2,5.00,0.00,23.3,22.5,00.0,32.2,25.1,11.9,0000.0,0009.64,0004.11,0003.42
2021-11-11 15:46:00,,0828.2,5.01,0.00,23.3,22.6,00.0,32.3,25.1,11.9,0000.0,0009.85,0004.15,0003.44
2021-11-11 15:47:00,,0828.2,4.99,0.00,23.3,22.6,00.0,32.3,25.1,12.0,0000.0,0009.80,0004.13,0003.45
2021-11-11 15:48:00,,0828.1,5.01,0.00,23.3,22.6,00.0,32.3,25.2,12.0,0000.0,0009.73,0004.13,0003.46
2021-11-11 15:49:00,,0828.0,5.01,0.00,23.4,22.6,00.0,32.3,25.2,11.9,0000.0,0009.76,0004.14,0003.47
2021-11-11 15:50:00,,0828.0,4.98,0.00,23.4,22.6,00.0,32.3,25.2,11.8,0000.0,0009.82,0004.18,0003.48
2021-11-11 15:51:00,,0827.9,5.01,0.00,23.4,22.6,00.0,32.3,25.2,11.4,0000.0,0009.94,0004.22,0003.50
2021-11-11 15:52:00,,0828.0,5.00,0.00,23.4,22.6,00.0,32.3,25.2,11.6,0000.0,0009.33,0004.20,0003.51
2021-11-11 15:53:00,,0828.2,5.00,0.00,23.4,22.6,00.0,32.3,25.3,11.9,0000.0,0009.23,0004.20,0003.51
2021-11-11 15:54:00,,0828.2,5.00,0.00,23.4,22.6,00.0,32.4,25.3,11.9,0000.0,0008.91,0004.21,0003.52
2021-11-11 15:55:00,,0828.2,5.01,0.00,23.4,22.7,00.0,32.4,25.3,12.1,0000.0,0009.28,0004.24,0003.53
2021-11-11 15:56:00,,0828.1,4.99,0.00,23.4,22.7,00.0,32.4,25.3,12.0,0000.0,0009.07,0004.27,0003.54
2021-11-11 15:57:00,,0828.1,5.01,0.00,23.5,22.7,00.0,32.4,25.3,11.9,0000.0,0009.50,0004.24,0003.54
2021-11-11 15:58:00,,0828.0,5.00,0.00,23.5,22.7,00.0,32.4,25.4,12.0,0000.0,0009.47,0004.25,0003.56
2021-11-11 15:59:00,,0828.0,5.01,0.00,23.5,22.7,00.0,32.4,25.3,11.9,0000.0,0009.44,0004.28,0003.58
